Knoxville, IA

10:41 AM CDT on June 28, 2017 (GMT -0500)
Knoxville Municipal

Weather History for KOXV - November, 2013

Change the Weather History Date:

Tuesday, November 19, 2013

  Actual Average Record
Temperature  
Mean Temperature 42 °F -  
Max Temperature 53 °F 49 °F 120 °F (1997)
Min Temperature 32 °F 28 °F 13 °F (1966)
Degree Days  
Heating Degree Days 22    
Moisture  
Dew Point 29 °F    
Average Humidity 62    
Maximum Humidity 87    
Minimum Humidity 41    
Precipitation  
Precipitation 0.00 in - - ()
Sea Level Pressure  
Sea Level Pressure 30.16 in    
Wind  
Wind Speed 11 mph (SE)    
Max Wind Speed 20 mph    
Max Gust Speed 26 mph    
Visibility 10 miles    
Events      
Averages and records for this station are not official NWS values.
T = Trace of Precipitation, MM = Missing Value Source: NWS Daily Summary

Daily Weather History Graph

Daily Weather History Graph

Search for Another Location

Airport or City:

Trip Planner

Search our weather history database for the weather conditions in past years. The results will help you decide how hot, cold, wet, or windy it might be!

Date:

Astronomy

Nov. 19, 2013 Rise Set
Actual Time 7:05 AM CST 4:49 PM CST
Civil Twilight 6:35 AM CST 5:19 PM CST
Nautical Twilight 6:02 AM CST 5:53 PM CST
Astronomical Twilight 5:29 AM CST 6:26 PM CST
Moon 6:41 PM CST (11/19) 8:45 AM CST (11/19)
Length of Visible Light 10h 43m
Length of Day
9h 44m
Waning Gibbous, 96% of the Moon is Illuminated
Nov 19
Waning Gibbous
Nov 25
Last Quarter
Dec 2
New
Dec 9
First Quarter
Dec 17
Full

Hourly Weather History & Observations

Time (CST) Temp. Windchill Dew Point Humidity Pressure Visibility Wind Dir Wind Speed Gust Speed Precip Events Conditions
12:15 AM 32.0 °F 25.6 °F 28.4 °F 87% 30.27 in 10.0 mi SSE 6.9 mph - N/A   Clear
12:35 AM 33.8 °F 27.7 °F 28.4 °F 81% 30.27 in 10.0 mi SSE 6.9 mph - N/A   Clear
12:55 AM 33.8 °F 27.7 °F 28.4 °F 81% 30.26 in 10.0 mi SSE 6.9 mph - N/A   Clear
1:15 AM 33.8 °F 28.6 °F 28.4 °F 81% 30.26 in 10.0 mi SSE 5.8 mph - N/A   Clear
1:35 AM 32.0 °F 25.6 °F 28.4 °F 87% 30.26 in 10.0 mi SSE 6.9 mph - N/A   Clear
1:55 AM 33.8 °F 27.0 °F 28.4 °F 81% 30.26 in 10.0 mi SE 8.1 mph - N/A   Clear
2:15 AM 33.8 °F 27.7 °F 28.4 °F 81% 30.26 in 10.0 mi SE 6.9 mph - N/A   Clear
2:35 AM 32.0 °F 25.6 °F 28.4 °F 87% 30.26 in 10.0 mi SSE 6.9 mph - N/A   Clear
2:55 AM 32.0 °F 25.6 °F 28.4 °F 87% 30.26 in 10.0 mi SSE 6.9 mph - N/A   Clear
3:15 AM 33.8 °F 27.7 °F 28.4 °F 81% 30.26 in 10.0 mi SE 6.9 mph - N/A   Clear
3:35 AM 33.8 °F 27.0 °F 28.4 °F 81% 30.26 in 10.0 mi SE 8.1 mph - N/A   Clear
3:55 AM 33.8 °F 27.0 °F 28.4 °F 81% 30.25 in 10.0 mi SE 8.1 mph - N/A   Clear
4:15 AM 33.8 °F 26.4 °F 28.4 °F 81% 30.25 in 10.0 mi SE 9.2 mph - N/A   Clear
4:35 AM 32.0 °F 24.8 °F 26.6 °F 80% 30.25 in 10.0 mi SSE 8.1 mph - N/A   Clear
4:55 AM 32.0 °F 24.8 °F 28.4 °F 87% 30.26 in 10.0 mi SE 8.1 mph - N/A   Clear
5:15 AM 32.0 °F 24.8 °F 28.4 °F 87% 30.25 in 10.0 mi SE 8.1 mph - N/A   Clear
5:35 AM 32.0 °F 24.8 °F 26.6 °F 80% 30.26 in 10.0 mi SE 8.1 mph - N/A   Clear
5:55 AM 32.0 °F 25.6 °F 26.6 °F 80% 30.26 in 10.0 mi ESE 6.9 mph - N/A   Clear
6:15 AM 32.0 °F 24.8 °F 26.6 °F 80% 30.25 in 10.0 mi SE 8.1 mph - N/A   Clear
6:35 AM 32.0 °F 24.2 °F 26.6 °F 80% 30.25 in 10.0 mi SE 9.2 mph - N/A   Clear
6:55 AM 32.0 °F 23.6 °F 26.6 °F 80% 30.25 in 10.0 mi SE 10.4 mph - N/A   Clear
7:15 AM 32.0 °F 24.2 °F 26.6 °F 80% 30.25 in 10.0 mi SE 9.2 mph - N/A   Clear
7:35 AM 32.0 °F 24.2 °F 26.6 °F 80% 30.25 in 10.0 mi SSE 9.2 mph - N/A   Clear
7:55 AM 33.8 °F 25.8 °F 26.6 °F 75% 30.24 in 10.0 mi SE 10.4 mph - N/A   Clear
8:15 AM 33.8 °F 26.4 °F 26.6 °F 75% 30.24 in 10.0 mi SE 9.2 mph 16.1 mph N/A   Clear
8:35 AM 35.6 °F 27.1 °F 28.4 °F 75% 30.24 in 10.0 mi SSE 12.7 mph - N/A   Clear
8:55 AM 37.4 °F 29.3 °F 28.4 °F 70% 30.24 in 10.0 mi SE 12.7 mph 18.4 mph N/A   Clear
9:15 AM 37.4 °F 28.9 °F 28.4 °F 70% 30.24 in 10.0 mi SE 13.8 mph 19.6 mph N/A   Clear
9:35 AM 39.2 °F 30.8 °F 28.4 °F 65% 30.24 in 10.0 mi SSE 15.0 mph - N/A   Clear
9:55 AM 41.0 °F 33.9 °F 28.4 °F 61% 30.23 in 10.0 mi SSE 12.7 mph 19.6 mph N/A   Clear
10:15 AM 42.8 °F 35.8 °F 30.2 °F 61% 30.23 in 10.0 mi SSE 13.8 mph 21.9 mph N/A   Clear
10:35 AM 44.6 °F 37.8 °F 30.2 °F 57% 30.22 in 10.0 mi SE 15.0 mph - N/A   Clear
10:55 AM 44.6 °F 37.8 °F 30.2 °F 57% 30.21 in 10.0 mi SE 15.0 mph - N/A   Clear
11:15 AM 46.4 °F 39.8 °F 30.2 °F 53% 30.20 in 10.0 mi SSE 16.1 mph - N/A   Clear
11:35 AM 48.2 °F - 30.2 °F 50% 30.19 in 10.0 mi SSE 17.3 mph - N/A   Clear
11:55 AM 48.2 °F - 30.2 °F 50% 30.18 in 10.0 mi SSE 13.8 mph 20.7 mph N/A   Clear
12:15 PM 50.0 °F - 30.2 °F 47% 30.17 in 10.0 mi SSE 12.7 mph 19.6 mph N/A   Clear
12:35 PM 50.0 °F - 30.2 °F 47% 30.16 in 10.0 mi SSE 16.1 mph - N/A   Clear
12:55 PM 50.0 °F - 30.2 °F 47% 30.15 in 10.0 mi SSE 15.0 mph 23.0 mph N/A   Clear
1:15 PM 51.8 °F - 30.2 °F 44% 30.14 in 10.0 mi SSE 15.0 mph 20.7 mph N/A   Clear
1:35 PM 51.8 °F - 30.2 °F 44% 30.12 in 10.0 mi SSE 17.3 mph - N/A   Clear
1:55 PM 53.6 °F - 30.2 °F 41% 30.12 in 10.0 mi SSE 11.5 mph 20.7 mph N/A   Clear
2:15 PM 53.6 °F - 30.2 °F 41% 30.11 in 10.0 mi SSE 17.3 mph - N/A   Clear
2:35 PM 53.6 °F - 30.2 °F 41% 30.10 in 10.0 mi SE 15.0 mph - N/A   Clear
2:55 PM 53.6 °F - 30.2 °F 41% 30.09 in 10.0 mi SE 15.0 mph 21.9 mph N/A   Clear
3:15 PM 51.8 °F - 30.2 °F 44% 30.09 in 10.0 mi SSE 15.0 mph 21.9 mph N/A   Clear
3:35 PM 51.8 °F - 30.2 °F 44% 30.08 in 10.0 mi SSE 16.1 mph 26.5 mph N/A   Clear
3:55 PM 51.8 °F - 30.2 °F 44% 30.08 in 10.0 mi SSE 15.0 mph 21.9 mph N/A   Clear
4:35 PM 50.0 °F - 30.2 °F 47% 30.08 in 10.0 mi SE 12.7 mph - N/A   Clear
4:55 PM 48.2 °F - 30.2 °F 50% 30.08 in 10.0 mi SE 13.8 mph 21.9 mph N/A   Clear
5:15 PM 48.2 °F - 30.2 °F 50% 30.07 in 10.0 mi SE 11.5 mph - N/A   Scattered Clouds
5:35 PM 46.4 °F 40.4 °F 30.2 °F 53% 30.07 in 10.0 mi SE 13.8 mph - N/A   Mostly Cloudy
5:55 PM 46.4 °F 40.4 °F 30.2 °F 53% 30.08 in 10.0 mi SE 13.8 mph - N/A   Scattered Clouds
6:15 PM 46.4 °F 40.4 °F 30.2 °F 53% 30.08 in 10.0 mi SE 13.8 mph 21.9 mph N/A   Scattered Clouds
6:35 PM 46.4 °F 39.8 °F 30.2 °F 53% 30.07 in 10.0 mi SE 16.1 mph - N/A   Mostly Cloudy
6:55 PM 46.4 °F 40.1 °F 30.2 °F 53% 30.07 in 10.0 mi SE 15.0 mph - N/A   Overcast
7:15 PM 46.4 °F 40.1 °F 30.2 °F 53% 30.07 in 10.0 mi SE 15.0 mph 21.9 mph N/A   Overcast
7:35 PM 46.4 °F 39.5 °F 28.4 °F 50% 30.06 in 10.0 mi SE 17.3 mph 23.0 mph N/A   Overcast
7:55 PM 46.4 °F 39.2 °F 28.4 °F 50% 30.06 in 10.0 mi SE 18.4 mph 24.2 mph N/A   Overcast
8:15 PM 46.4 °F 39.0 °F 28.4 °F 50% 30.05 in 10.0 mi SSE 19.6 mph 25.3 mph N/A   Overcast
8:35 PM 46.4 °F 39.0 °F 28.4 °F 50% 30.05 in 10.0 mi SSE 19.6 mph - N/A   Overcast
8:55 PM 46.4 °F 39.8 °F 28.4 °F 50% 30.05 in 10.0 mi SSE 16.1 mph 24.2 mph N/A   Overcast
9:15 PM 46.4 °F 40.7 °F 28.4 °F 50% 30.06 in 10.0 mi SSE 12.7 mph 21.9 mph N/A   Overcast
9:35 PM 46.4 °F 40.1 °F 26.6 °F 46% 30.06 in 10.0 mi SSE 15.0 mph - N/A   Overcast
9:55 PM 44.6 °F 37.4 °F 26.6 °F 49% 30.06 in 10.0 mi SSE 16.1 mph - N/A   Overcast
10:15 PM 44.6 °F 37.8 °F 26.6 °F 49% 30.06 in 10.0 mi SSE 15.0 mph - N/A   Overcast
10:35 PM 44.6 °F 37.2 °F 26.6 °F 49% 30.05 in 10.0 mi SSE 17.3 mph - N/A   Overcast
10:55 PM 44.6 °F 37.2 °F 26.6 °F 49% 30.04 in 10.0 mi SSE 17.3 mph - N/A   Overcast
11:15 PM 44.6 °F 36.6 °F 26.6 °F 49% 30.03 in 10.0 mi SSE 19.6 mph - N/A   Overcast
11:35 PM 44.6 °F 37.4 °F 26.6 °F 49% 30.04 in 10.0 mi SSE 16.1 mph 23.0 mph N/A   Overcast
11:55 PM 44.6 °F 37.4 °F 26.6 °F 49% 30.04 in 10.0 mi SSE 16.1 mph 23.0 mph N/A   Overcast